CW3151 Weather Reports


time (UTC)temp
C
wind
direction
speed
KPH
gust
KPH
rain 1hr
cm
rain 24hr
cm
rain mn
cm
humidity
%
barometer
mb
20260906043325 21 296 0.0 0.0 0.00 0.00 0.00 91 1017.0
20260906041829 21 296 0.0 0.0 0.00 0.00 0.00 91 1016.9
20260906040316 21 296 0.0 0.0 0.00 0.00 0.00 91 1016.9
20260906034819 21 296 0.0 0.0 0.00 0.00 0.00 91 1017.3
20260906033321 21 296 0.0 0.0 0.00 0.00 0.00 91 1017.3
20260906031849 21 296 0.0 0.0 0.00 0.00 0.00 91 1017.4
20260906030311 21 296 0.0 0.0 0.00 0.00 0.00 91 1017.5
20260906024818 21 296 0.0 0.0 0.00 0.00 0.00 91 1017.4
20260906023322 21 296 0.0 0.0 0.00 0.00 0.00 90 1017.4
20260906021827 21 296 0.0 0.0 0.00 0.00 0.00 90 1017.2
20260906020332 21 296 0.0 0.0 0.00 0.00 0.00 89 1016.9
20260906014817 21 296 0.0 0.0 0.00 0.00 0.00 89 1016.9
20260906013321 21 296 0.0 0.0 0.00 0.00 0.00 89 1017.0
20260906011827 21 296 0.0 0.0 0.00 0.00 0.00 88 1017.0
20260906010331 22 296 0.0 0.0 0.00 0.00 0.00 88 1016.8
20260906004818 22 296 0.0 0.0 0.00 0.00 0.00 87 1016.7
20260906003321 22 296 0.0 0.0 0.00 0.00 0.00 86 1016.5
20260906001827 22 296 0.0 0.0 0.00 0.00 0.00 87 1016.3
20260906000352 22 296 0.0 0.0 0.00 0.00 0.00 86 1016.0
20260905234818 23 296 0.0 0.0 0.00 0.00 0.00 86 1015.9
20260905233321 23 296 0.0 0.0 0.00 0.00 0.00 85 1015.8
20260905231822 23 296 0.0 0.0 0.00 0.00 0.00 85 1015.9
20260905230331 23 296 0.0 0.0 0.00 0.00 0.00 85 1015.9
20260905224833 23 296 0.0 0.0 0.00 0.00 0.00 84 1015.8
20260905223320 23 296 0.0 0.0 0.00 0.00 0.00 83 1015.8
20260905221820 23 296 0.0 0.0 0.00 0.00 0.00 83 1015.9
20260905220330 23 296 0.0 0.0 0.00 0.00 0.00 83 1015.8
20260905214812 24 296 0.0 0.0 0.00 0.00 0.00 82 1016.0
20260905213319 24 296 0.0 0.0 0.00 0.00 0.00 82 1016.4
20260905211822 24 296 0.0 0.0 0.00 0.00 0.00 81 1016.5
20260905210328 24 296 0.0 0.0 0.00 0.00 0.00 80 1016.7
20260905204851 24 296 0.0 0.0 0.00 0.00 0.00 79 1016.6
20260905203319 24 296 0.0 0.0 0.00 0.00 0.00 78 1016.8
20260905201820 24 296 0.0 0.0 0.00 0.00 0.00 77 1017.0
20260905200325 24 296 0.0 0.0 0.00 0.00 0.00 79 1017.1
20260905194811 23 296 0.0 0.0 0.00 0.00 0.00 78 1017.2
20260905193314 23 296 0.0 0.0 0.00 0.00 0.00 75 1017.2
20260905191841 24 296 0.0 0.0 0.00 0.00 0.00 75 1017.5
20260905190322 24 296 0.0 0.0 0.00 0.00 0.00 68 1017.8
20260905184829 24 61 0.0 0.0 0.00 0.00 0.00 69 1018.5
20260905183312 25 98 0.0 0.0 0.00 0.00 0.00 75 1018.5
20260905181819 25 95 0.0 0.0 0.00 0.00 0.00 75 1017.8
20260905180343 26 38 0.0 0.0 0.00 0.00 0.00 77 1017.5
20260905174827 27 35 0.0 0.0 0.00 0.00 0.00 74 1017.5
20260905173349 29 34 0.0 0.0 0.00 0.00 0.00 68 1017.7
20260905171851 30 34 0.0 0.0 0.00 0.00 0.00 63 1017.7
20260905170338 29 306 0.0 1.6 0.00 0.00 0.00 63 1017.9
20260905164819 28 66 0.0 0.0 0.00 0.00 0.00 64 1018.0
20260905163326 28 24 0.0 0.0 0.00 0.00 0.00 67 1018.2
20260905161830 28 63 0.0 0.0 0.00 0.00 0.00 69 1018.4
20260905160317 28 291 0.0 0.0 0.00 0.00 0.00 74 1018.5
20260905154821 27 242 0.0 0.0 0.00 0.00 0.00 73 1018.5
20260905153327 26 246 0.0 0.0 0.00 0.00 0.00 80 1018.5
20260905151831 26 250 0.0 0.0 0.00 0.00 0.00 79 1018.5
20260905150317 25 250 0.0 0.0 0.00 0.00 0.00 84 1018.4
20260905144820 25 250 0.0 0.0 0.00 0.00 0.00 84 1018.6
20260905143323 24 250 0.0 0.0 0.00 0.00 0.00 86 1018.7
20260905141830 23 250 0.0 0.0 0.00 0.00 0.00 88 1018.7
20260905140314 23 250 0.0 0.0 0.00 0.00 0.00 89 1018.9
20260905134840 22 250 0.0 0.0 0.00 0.00 0.00 91 1018.9
20260905133323 22 250 0.0 0.0 0.00 0.00 0.00 92 1019.0
20260905131850 21 250 0.0 0.0 0.00 0.00 0.00 93 1019.0
20260905130311 21 250 0.0 0.0 0.00 0.00 0.00 93 1019.0
20260905124818 21 250 0.0 0.0 0.00 0.00 0.00 94 1019.0
20260905123323 20 250 0.0 0.0 0.00 0.00 0.00 94 1018.9
20260905121829 20 250 0.0 0.0 0.00 0.00 0.00 94 1018.8
20260905120352 20 250 0.0 0.0 0.00 0.00 0.00 93 1018.8
20260905114835 20 250 0.0 0.0 0.00 0.00 0.00 93 1018.5
20260905113321 20 250 0.0 0.0 0.00 0.00 0.00 93 1018.4
20260905111823 20 250 0.0 0.0 0.00 0.00 0.00 93 1018.2
20260905110312 20 250 0.0 0.0 0.00 0.00 0.00 93 1018.1
20260905104813 20 250 0.0 0.0 0.00 0.00 0.00 93 1017.9
20260905103321 20 250 0.0 0.0 0.00 0.00 0.00 93 1017.9
20260905101823 20 250 0.0 0.0 0.00 0.00 0.00 93 1017.7
20260905100330 20 250 0.0 0.0 0.00 0.00 0.00 92 1017.7
20260905094812 20 250 0.0 0.0 0.00 0.00 0.00 93 1017.6
20260905093319 20 250 0.0 0.0 0.00 0.00 0.00 93 1017.7
20260905091823 20 250 0.0 0.0 0.00 0.00 0.00 93 1017.8
20260905090331 20 250 0.0 0.0 0.00 0.00 0.00 93 1017.8
20260905084814 20 250 0.0 0.0 0.00 0.00 0.00 93 1017.9
20260905083320 20 250 0.0 0.0 0.00 0.00 0.00 93 1018.2
20260905081822 20 250 0.0 0.0 0.00 0.00 0.00 93 1018.2
20260905080331 20 250 0.0 0.0 0.00 0.00 0.00 93 1018.3
20260905074812 20 250 0.0 0.0 0.00 0.00 0.00 93 1018.3
20260905073320 21 250 0.0 0.0 0.00 0.00 0.00 93 1018.4
20260905071822 21 250 0.0 0.0 0.00 0.00 0.00 92 1018.5
20260905070347 21 250 0.0 0.0 0.00 0.00 0.00 92 1018.6
20260905064833 21 250 0.0 0.0 0.00 0.00 0.00 92 1018.7
20260905063315 21 250 0.0 0.0 0.00 0.00 0.00 92 1018.9
20260905061822 21 250 0.0 0.0 0.00 0.00 0.00 92 1018.9
20260905060323 21 250 0.0 0.0 0.00 0.00 0.00 92 1019.0
20260905054850 21 250 0.0 0.0 0.00 0.00 0.00 92 1019.3
20260905053313 21 250 0.0 0.0 0.00 0.00 0.00 92 1019.3
20260905051820 21 250 0.0 0.0 0.00 0.00 0.00 92 1019.3
20260905050323 21 250 0.0 0.0 0.00 0.00 0.00 91 1019.4
20260905044825 21 250 0.0 0.0 0.00 0.00 0.00 92 1019.3